Location: ČR
(50.0000°N, 15.0000°E)
Time: 06:08:54
(UTC+01:00)

Transit 2A Rocket - All Passes

Search period start: 10 February 2026 00:00
Search period end: 20 February 2026 00:00
Orbit: 581 x 902 km, 66.7° (Epoch: 9 February)

Date Brightness Start Highest point End Pass type
(mag) Time Alt. Az. Time Alt. Az. Time Alt. Az.
10 Feb - 01:04:13 10° NNW 01:09:25 33° NE 01:14:14 10° E night (unlit)
10 Feb - 02:46:40 10° NW 02:52:15 64° WSW 02:57:20 10° SSE night (unlit)
10 Feb - 04:32:07 10° W 04:33:25 11° W 04:34:42 10° WSW night (unlit)
10 Feb - 17:22:29 10° S 17:28:01 40° ESE 17:33:35 10° NE daylight
10 Feb - 19:04:30 10° WSW 19:10:24 52° NW 19:16:14 10° NNE visible
10 Feb - 20:49:45 10° WNW 20:54:09 21° NNW 20:58:29 10° NNE visible
10 Feb - 22:35:28 10° NNW 22:38:50 15° N 22:42:07 10° NE visible
11 Feb - 00:18:37 10° NNW 00:23:21 25° NNE 00:27:47 10° E night (unlit)
11 Feb - 02:00:57 10° NW 02:06:40 81° NE 02:11:51 10° SE night (unlit)
11 Feb - 03:44:29 10° WNW 03:48:19 20° WSW 03:51:56 10° SSW night (unlit)
11 Feb - 16:37:56 10° SSE 16:42:42 25° ESE 16:47:28 10° ENE daylight
11 Feb - 18:18:35 10° SW 18:24:37 76° NW 18:30:38 10° NE visible
11 Feb - 20:03:01 10° W 20:07:59 26° NNW 20:12:52 10° NNE visible
11 Feb - 21:49:03 10° NW 21:52:29 15° N 21:55:49 10° NNE visible
11 Feb - 23:32:58 10° NNW 23:37:10 20° NNE 23:41:09 10° ENE visible
12 Feb - 01:15:19 10° NNW 01:20:55 53° NE 01:26:01 10° ESE night (unlit)
12 Feb - 02:58:11 10° NW 03:03:06 33° WSW 03:07:37 10° S night (unlit)
12 Feb - 15:54:14 10° SE 15:57:29 15° ESE 16:00:46 10° ENE daylight
12 Feb - 17:33:00 10° SSW 17:38:58 72° ESE 17:44:58 10° NE visible
12 Feb - 19:16:29 10° W 19:21:55 34° NW 19:27:17 10° NNE visible
12 Feb - 21:02:24 10° NW 21:06:08 17° NNW 21:09:47 10° NNE visible
12 Feb - 22:47:10 10° NNW 22:50:53 17° NNE 22:54:27 10° NE visible
13 Feb - 00:29:43 10° NNW 00:35:01 36° NE 00:39:53 10° ESE night (unlit)
13 Feb - 02:12:15 10° NW 02:17:42 55° WSW 02:22:40 10° SSE night (unlit)
13 Feb - 16:47:46 10° S 16:53:28 46° ESE 16:59:10 10° NE daylight
13 Feb - 18:30:10 10° WSW 18:35:59 47° NW 18:41:43 10° NNE visible
13 Feb - 20:15:36 10° WNW 20:19:51 19° NNW 20:23:59 10° NNE visible
13 Feb - 22:01:09 10° NNW 22:04:33 15° N 22:07:49 10° NE visible
13 Feb - 23:44:08 10° NNW 23:48:58 27° NNE 23:53:29 10° E visible
14 Feb - 01:26:29 10° NW 01:32:10 89° SW 01:37:18 10° SE night (unlit)
14 Feb - 03:10:21 10° WNW 03:13:39 17° WSW 03:16:48 10° SW night (unlit)
14 Feb - 16:03:03 10° SSE 16:08:05 29° ESE 16:13:09 10° NE daylight
14 Feb - 17:44:08 10° SW 17:50:09 68° NW 17:56:07 10° NE visible
14 Feb - 19:28:50 10° W 19:33:38 24° NNW 19:38:19 10° NNE visible
14 Feb - 21:14:50 10° NW 21:18:11 15° N 21:21:25 10° NNE visible
14 Feb - 22:58:30 10° NNW 23:02:49 21° NNE 23:06:54 10° ENE visible
15 Feb - 00:40:49 10° NNW 00:46:26 59° NE 00:51:33 10° SE night (unlit)
15 Feb - 02:23:51 10° NW 02:28:28 28° WSW 02:32:45 10° SSW night (unlit)
15 Feb - 15:19:01 10° SE 15:22:51 18° ESE 15:26:41 10° ENE daylight
15 Feb - 16:58:26 10° SSW 17:04:28 81° SE 17:10:28 10° NE daylight
15 Feb - 18:42:13 10° W 18:47:32 31° NW 18:52:44 10° NNE visible
15 Feb - 20:28:14 10° NW 20:31:49 16° N 20:35:19 10° NNE visible
15 Feb - 22:12:45 10° NNW 22:16:33 17° NNE 22:20:12 10° ENE visible
15 Feb - 23:55:13 10° NNW 00:00:35 40° NE 00:05:30 10° ESE visible
16 Feb - 01:37:48 10° NW 01:43:07 47° WSW 01:47:57 10° S night (unlit)
16 Feb - 16:13:06 10° SSW 16:18:54 52° ESE 16:24:43 10° NE daylight
16 Feb - 17:55:50 10° WSW 18:01:32 42° NW 18:07:10 10° NNE visible
16 Feb - 19:41:27 10° WNW 19:45:30 18° NNW 19:49:28 10° NNE visible
16 Feb - 21:26:49 10° NNW 21:30:14 16° N 21:33:32 10° NE visible
16 Feb - 23:09:38 10° NNW 23:14:35 29° NNE 23:19:11 10° E visible
17 Feb - 00:52:01 10° NW 00:57:37 78° SW 01:02:41 10° SSE night (unlit)
17 Feb - 02:36:21 10° WNW 02:38:58 14° WSW 02:41:29 10° SW night (unlit)
17 Feb - 15:28:12 10° S 15:33:29 33° ESE 15:38:46 10° NE daylight
17 Feb - 17:09:42 10° SW 17:15:41 61° NW 17:21:35 10° NNE daylight
17 Feb - 18:54:39 10° WNW 18:59:16 22° NNW 19:03:46 10° NNE visible
17 Feb - 20:40:36 10° NW 20:43:52 15° N 20:47:03 10° NE visible
17 Feb - 22:24:01 10° NNW 22:28:27 22° NNE 22:32:38 10° ENE visible
18 Feb - 00:06:19 10° NW 00:11:57 67° NE 00:17:03 10° SE visible
18 Feb - 01:49:32 10° WNW 01:53:49 24° WSW 01:57:48 10° SSW night (unlit)
18 Feb - 14:43:55 10° SSE 14:48:12 21° ESE 14:52:28 10° ENE daylight
18 Feb - 16:23:53 10° SW 16:29:57 89° NW 16:35:57 10° NE daylight
18 Feb - 18:07:59 10° W 18:13:08 28° NNW 18:18:11 10° NNE visible
18 Feb - 19:54:02 10° NW 19:57:30 16° N 20:00:52 10° NNE visible
18 Feb - 21:38:18 10° NNW 21:42:13 18° NNE 21:45:57 10° ENE visible
18 Feb - 23:20:42 10° NNW 23:26:07 44° NE 23:31:05 10° ESE visible
19 Feb - 01:03:24 10° NW 01:08:30 40° WSW 01:13:10 10° S night (unlit)
19 Feb - 14:00:57 10° ESE 14:03:02 12° E 14:05:08 10° E daylight
19 Feb - 15:38:26 10° SSW 15:44:21 60° ESE 15:50:13 10° NE daylight
19 Feb - 17:21:30 10° WSW 17:27:06 38° NW 17:32:36 10° NNE daylight
19 Feb - 19:07:18 10° WNW 19:11:10 17° NNW 19:14:56 10° NNE visible
19 Feb - 20:52:26 10° NNW 20:55:54 16° N 20:59:14 10° NE visible
19 Feb - 22:35:07 10° NNW 22:40:09 31° NE 22:44:49 10° E visible
